Home   Weather   Worms   Past weeks

Flag for Germany Past Weather in Worms, Rhineland-Palatinate, Germany — Yesterday and Last 2 Weeks

50 °F

Partly cloudy.

Feels Like: 50 °F
Forecast: 43 / 57 °F
Wind: 1 mph from North

Location: Mannheim City

Current Time: Oct 28, 2016 at 10:05:41 PM

Latest Report: Oct 28, 2016 at 8:20 PM

Visibility: N/A

Pressure: 30.57 "Hg

Humidity: 100%

Dew Point: 50 °F

Location of WormsLocation

Past Weather in Worms — Graph


Worms Temperature Yesterday

Maximum temperature yesterday: 57 °F (at 4:20 PM)
Minimum temperature yesterday: 37 °F (at 5:50 AM)
Average temperature yesterday: 49 °F

High & Low Weather Summary for the Past Weeks

High63 °F (Oct 15, 5:50 PM)100% (Oct 14, 7:50 AM)30.57 "Hg (Oct 14, 7:50 AM)
Low37 °F (Oct 27, 5:50 AM)59% (Oct 18, 5:20 PM)29.65 "Hg (Oct 14, 5:50 PM)
Average51 °F89%30.10 "Hg
* Reported Oct 13 8:20 PM — Oct 28 8:20 PM, Worms, Weather by CustomWeather, © 2016

Note: Actual official high and low records may vary slightly from our data, if they occured in-between our weather recording intervals... More about our weather records


Worms Weather History for the Previous 24 Hours

Scroll right to see more
Time TempWeatherWind HumidityBarometerVisibility
8:20 PM
Fri, Oct 28
50 °FPartly cloudy.1 mph100%30.57 "HgN/A
7:50 PM50 °FPassing clouds.1 mph100%30.57 "HgN/A
7:20 PM50 °FPassing clouds.1 mph100%30.57 "HgN/A
6:50 PM54 °FPassing clouds.2 mph88%30.57 "HgN/A
6:20 PM54 °FPassing clouds.2 mph88%30.57 "HgN/A
5:50 PM54 °FPartly sunny.2 mph88%30.54 "HgN/A
5:20 PM54 °FPartly sunny.3 mph88%30.54 "HgN/A
4:50 PM54 °FPartly sunny.2 mph88%30.54 "HgN/A
4:20 PM54 °FPartly sunny.3 mph82%30.54 "HgN/A
3:50 PM54 °FPartly sunny.5 mph82%30.54 "HgN/A
3:20 PM54 °FOvercast.3 mph82%30.57 "HgN/A
2:50 PM54 °FPartly sunny.5 mph82%30.57 "HgN/A
2:20 PM52 °FScattered clouds.5 mph88%30.57 "HgN/A
1:50 PM52 °FSunny.6 mph94%30.57 "Hg6 mi
1:20 PM50 °FScattered clouds.5 mph100%30.57 "Hg4 mi
12:50 PM50 °FPartly sunny.5 mph100%30.57 "Hg4 mi
12:20 PM46 °FFog.3 mph100%30.57 "Hg3 mi
11:50 AM46 °FFog.5 mph100%30.57 "Hg2 mi
11:20 AM45 °FFog.6 mph100%30.57 "Hg1 mi
10:50 AM45 °FFog.5 mph100%30.57 "Hg1 mi
10:20 AM43 °FQuite cool.6 mph100%30.57 "Hg1 mi
9:50 AM43 °FFog.7 mph100%30.57 "Hg1 mi
8:50 AM43 °FFog.5 mph100%30.54 "Hg0 mi
8:20 AM43 °FFog.6 mph100%30.54 "Hg1 mi
7:50 AM43 °FFog.3 mph100%30.54 "Hg3 mi
7:20 AM43 °FClear.3 mph100%30.51 "Hg4 mi
6:50 AM43 °FClear.3 mph100%30.54 "Hg4 mi
6:20 AM41 °FClear.2 mph100%30.54 "Hg4 mi
5:50 AM41 °FFog.1 mph100%30.54 "Hg3 mi
Weather by CustomWeather, © 2016

See weather overviewHow to use our weather pages